Preview of NWS' New Version of Forecast
This preview is not operational and should not be used for support decisions.

Regional Weather Roundup (RWR)

Issued by National Weather Service (NWS)

                            
000
ASUS46 KPQR 200810
RWROR 

OREGON REGIONAL WEATHER ROUNDUP
NATIONAL WEATHER SERVICE PORTLAND OR
1200 AM PST WED FEB 20 2019

NOTE: "FAIR" INDICATES FEW OR NO CLOUDS BELOW 12,000 FEET WITH
NO SIGNIFICANT WEATHER AND/OR OBSTRUCTIONS TO VISIBILITY.

ORZ001>013-200900-
NORTHWEST OREGON

  
CITY           SKY/WX    TMP DP  RH WIND       PRES   REMARKS
ASTORIA        LGT RAIN  42  38  85 NW12      29.91F                  
TILLAMOOK      LGT RAIN  41  37  87 S7        29.95F                  
NEWPORT        LGT RAIN  43  37  81 NW13G21   30.01S                  
PORTLAND       RAIN      40  38  93 W13G20    29.92F FOG              
VANCOUVER WA   CLOUDY    40  36  86 W6        29.91F                  
SCAPPOOSE      CLOUDY    40  36  86 CALM      29.91F                  
HILLSBORO      MOCLDY    38  36  92 W3          N/A                   
AURORA         CLOUDY    40  39  97 SW8       29.93F                  
MCMINNVILLE    LGT RAIN  40  38  93 W8        29.92F                  
SALEM          CLOUDY    40  37  89 SW6       29.92F                  
CORVALLIS      LGT RAIN  41  38  89 W7        29.96F                  
EUGENE         LGT RAIN  40  37  89 SW12      29.97F                  
$$

ORZ021-028-200900-
SOUTHWEST OREGON

  
CITY           SKY/WX    TMP DP  RH WIND       PRES   REMARKS
NORTH BEND     MOCLDY    46  40  79 NW16G23   30.06F                  
BROOKINGS      LGT RAIN  42  42 100 CALM      30.10F                  
ROSEBURG       LGT RAIN  41  37  86 S6        30.01F                  
SEXTON SUMMIT  SNOW      28  28 100 SW10      29.92F VSB<1/4 WCI  19  
GRANTS PASS    CLOUDY    34  34 100 CALM      30.06                   
MEDFORD        LGT RAIN  37  31  78 W3        30.02F                  
$$

ORZ014>016-041-200900-
COLUMBIA GORGE

  
CITY           SKY/WX    TMP DP  RH WIND       PRES   REMARKS
TROUTDALE      LGT RAIN  42  38  85 W10       29.91S                  
HOOD RIVER     PTCLDY    34  34 100 W3        29.82F                  
THE DALLES     PTCLDY    38  32  79 NW12      29.82F WCI  30          
$$

ORZ029>031-041-044-049-050-061>064-502-503-505>511-200900-
EASTERN OREGON

  
CITY           SKY/WX    TMP DP  RH WIND       PRES   REMARKS
MADRAS         NOT AVBL                                               
REDMOND        LGT SNOW  34  26  72 W7        29.81S                  
BEND           PTCLDY    32  25  74 SW9       29.79                   
PRINEVILLE     CLOUDY    32  25  74 VRB3      29.79                   
KLAMATH FALLS  MOCLDY    30  23  75 W15G21    29.90F WCI  19          
LAKEVIEW       CLOUDY    25  20  81 S5        29.87F                  
HERMISTON      LGT RAIN  37  31  78 W6        29.79F                  
PENDLETON      CLOUDY    36  31  82 SW7       29.76F                  
JOHN DAY       FLURRIES  29  28  96 W3        29.76                   
MEACHAM        SNOW      29  25  85 VRB3      29.69F VSB 1/2          
LA GRANDE      LGT SNOW  29  27  92 S3        29.76F FOG              
BAKER CITY     CLOUDY    28  25  88 CALM      29.74F                  
BURNS          CLOUDY    27  21  78 SW8       29.78F                  
ROME             N/A     30  25  81 SW3       29.78F                  
ONTARIO        CLOUDY    32  28  85 CALM      29.83F                  
$$